Missoula, MT

9:10 AM MDT on August 27, 2016 (GMT -0600)
Missoula International

Weather History for KMSO - January, 2013

Change the Weather History Date:

Tuesday, January 15, 2013

  Actual Average Record
Temperature  
Mean Temperature 19 °F 26 °F  
Max Temperature 28 °F 33 °F 50 °F (1974)
Min Temperature 9 °F 18 °F -10 °F (1950)
Degree Days  
Heating Degree Days 46 39  
Month to date heating degree days 676 605  
Since 1 July heating degree days 3458 3777  
Cooling Degree Days 0 0  
Month to date cooling degree days 0 0  
Year to date cooling degree days 0 0  
Moisture  
Dew Point 15 °F    
Average Humidity 88    
Maximum Humidity 100    
Minimum Humidity 75    
Precipitation  
Precipitation T in 0.02 in 0.81 in (1974)
Month to date precipitation 0.81 0.44  
Year to date precipitation 0.81 0.44  
Snow  
Snow T in - - ()
Month to date snowfall 7.3  
Year to date snowfall 7.3  
Since 1 July snowfall 28.4  
Snow Depth 6.00 in    
Sea Level Pressure  
Sea Level Pressure 30.57 in    
Wind  
Wind Speed 1 mph (ESE)    
Max Wind Speed 6 mph    
Max Gust Speed 7 mph    
Visibility 8 miles    
Events Fog    
T = Trace of Precipitation, MM = Missing Value Source: NWS Daily Summary

Daily Weather History Graph

Daily Weather History Graph

Search for Another Location

Airport or City:

Trip Planner

Search our weather history database for the weather conditions in past years. The results will help you decide how hot, cold, wet, or windy it might be!

Date:

Astronomy

Jan. 15, 2013 Rise Set
Actual Time 8:17 AM MST 5:15 PM MST
Civil Twilight 7:43 AM MST 5:49 PM MST
Nautical Twilight 7:05 AM MST 6:26 PM MST
Astronomical Twilight 6:28 AM MST 7:03 PM MST
Moon 10:04 AM MST (1/15) 10:31 PM MST (1/15)
Length of Visible Light 10h 06m
Length of Day
8h 57m
Waxing Crescent, 20% of the Moon is Illuminated
Jan 15
Waxing Crescent
Jan 18
First Quarter
Jan 26
Full
Feb 3
Last Quarter
Feb 10
New

Hourly Weather History & Observations

Time (MST) Temp. Windchill Dew Point Humidity Pressure Visibility Wind Dir Wind Speed Gust Speed Precip Events Conditions
12:53 AM 18.0 °F - 14.0 °F 84% 30.53 in 10.0 mi Calm Calm - N/A   Overcast
1:53 AM 18.0 °F 11.1 °F 14.0 °F 84% 30.53 in 10.0 mi ESE 4.6 mph - N/A   Overcast
2:06 AM 17.6 °F 12.3 °F 14.0 °F 86% 30.37 in 10.0 mi East 3.5 mph - N/A   Overcast
2:53 AM 19.0 °F 13.9 °F 14.0 °F 81% 30.55 in 10.0 mi ESE 3.5 mph - N/A   Overcast
3:53 AM 19.0 °F 12.3 °F 15.1 °F 85% 30.55 in 10.0 mi SE 4.6 mph - N/A   Overcast
4:53 AM 19.0 °F 12.3 °F 15.1 °F 85% 30.55 in 10.0 mi East 4.6 mph - N/A   Overcast
5:53 AM 19.9 °F 13.4 °F 16.0 °F 85% 30.54 in 10.0 mi ESE 4.6 mph - N/A   Overcast
6:37 AM 19.4 °F 14.3 °F 15.8 °F 86% 30.39 in 10.0 mi East 3.5 mph - N/A   Overcast
6:53 AM 19.9 °F 14.9 °F 16.0 °F 85% 30.56 in 10.0 mi East 3.5 mph - N/A   Overcast
7:53 AM 19.0 °F - 16.0 °F 88% 30.57 in 7.0 mi Calm Calm - N/A   Overcast
8:53 AM 19.0 °F - 16.0 °F 88% 30.60 in 6.0 mi Calm Calm - N/A   Overcast
9:53 AM 19.9 °F - 17.1 °F 89% 30.60 in 6.0 mi Calm Calm - N/A   Overcast
10:53 AM 19.9 °F - 17.1 °F 89% 30.61 in 10.0 mi Calm Calm - N/A   Overcast
11:53 AM 21.0 °F - 18.0 °F 88% 30.61 in 10.0 mi Calm Calm - N/A   Overcast
12:53 PM 21.9 °F - 19.0 °F 89% 30.61 in 10.0 mi Calm Calm - N/A   Overcast
1:53 PM 23.0 °F - 19.0 °F 85% 30.60 in 10.0 mi Calm Calm - N/A   Overcast
2:53 PM 24.1 °F - 19.9 °F 84% 30.60 in 10.0 mi Calm Calm - N/A   Overcast
3:53 PM 26.1 °F - 19.9 °F 78% 30.61 in 10.0 mi Calm Calm - N/A   Overcast
4:53 PM 26.1 °F - 19.9 °F 78% 30.60 in 10.0 mi Calm Calm - N/A   Scattered Clouds
5:53 PM 19.0 °F - 16.0 °F 88% 30.62 in 10.0 mi Calm Calm - N/A   Clear
6:53 PM 17.1 °F - 15.1 °F 92% 30.63 in 9.0 mi Calm Calm - N/A   Clear
7:53 PM 16.0 °F - 14.0 °F 92% 30.64 in 5.0 mi Calm Calm - N/A   Clear
8:53 PM 16.0 °F - 12.9 °F 88% 30.64 in 9.0 mi Calm Calm - N/A   Clear
9:53 PM 14.0 °F - 10.9 °F 88% 30.65 in 10.0 mi Calm Calm - N/A   Clear
10:08 PM 10.4 °F 0.8 °F 8.6 °F 92% 30.49 in 1.2 mi WSW 5.8 mph - N/A   Partly Cloudy
10:13 PM 10.4 °F 0.8 °F 8.6 °F 92% 30.49 in 0.2 mi WSW 5.8 mph - N/A Fog Light Freezing Fog
10:37 PM 12.2 °F - 10.4 °F 92% 30.48 in 1.0 mi Calm Calm - N/A   Mist
10:39 PM 12.2 °F - 10.4 °F 92% 30.48 in 2.0 mi Calm Calm - N/A   Mostly Cloudy
10:44 PM 12.2 °F 6.1 °F 10.4 °F 92% 30.48 in 5.0 mi ENE 3.5 mph - N/A   Scattered Clouds
10:53 PM 10.9 °F 2.9 °F 10.0 °F 96% 30.65 in 7.0 mi East 4.6 mph - N/A   Partly Cloudy
11:53 PM 9.0 °F - 7.0 °F 92% 30.66 in 5.0 mi Calm Calm - N/A   Clear